User: anonymous   Login
Location: Unspecified
(0.0000°N, 0.0000°E)
Time: 16:08:57
(UTC+02:00)
Language:

Meteor 1-10 Rocket - Orbit

View from above orbital plane
View from above orbital plane
View from above satellite
View from above satellite

Ground track
Ground track

The orbit data is extracted from the following two-line orbital elements,

1 05732U 71120B   15243.56328557 -.00000102  00000-0 -69304-4 0  9995
2 05732 081.2512 036.4325 0052837 086.8283 273.8929 14.05893979246817
Epoch (UTC): 31 August 2015 13:31:07
Eccentricity: 0.0052837
inclination: 81.2512°
perigee height: 835 km
apogee height: 912 km
right ascension of ascending node: 36.4325°
argument of perigee: 86.8283°
revolutions per day: 14.05893979
mean anomaly at epoch: 273.8929°
orbit number at epoch: 24681

The dashed part of the orbit path shows where the satellite is in the earth's shadow,  

DLR